FW8756 Weather Reports


time (UTC)temp
F
wind
direction
speed
knots
gust
knots
rain 1hr
in
rain 24hr
in
rain mn
in
humidity
%
barometer
mb
20260509201512 91 151 0.0 0.0 0.00 0.00 0.00 64 1007.5
20260509201010 92 258 2.6 2.6 0.00 0.00 0.00 63 1007.3
20260509200504 92 164 0.0 0.0 0.00 0.00 0.00 64 1007.4
20260509200001 92 157 0.0 0.0 0.00 0.00 0.00 64 1007.5
20260509195456 92 206 2.6 4.3 0.00 0.00 0.00 63 1007.7
20260509194955 92 173 0.0 0.0 0.00 0.00 0.00 62 1007.7
20260509194451 91 166 0.0 0.0 0.00 0.00 0.00 64 1007.8
20260509193948 91 181 1.7 1.7 0.00 0.00 0.00 64 1007.7
20260509193443 89 165 0.0 0.0 0.00 0.00 0.00 68 1007.7
20260509192939 90 286 0.9 1.7 0.00 0.00 0.00 67 1007.6
20260509192436 90 263 2.6 4.3 0.00 0.00 0.00 66 1008.2
20260509191931 90 167 0.0 0.0 0.00 0.00 0.00 66 1007.9
20260509191426 86 198 0.0 0.0 0.00 0.00 0.00 72 1008.1
20260509190923 86 165 0.0 0.0 0.00 0.00 0.00 71 1008.0
20260509190420 87 189 0.0 0.9 0.00 0.00 0.00 73 1008.1
20260509185917 86 158 2.6 2.6 0.00 0.00 0.00 72 1008.2
20260509185415 89 160 0.0 0.9 0.00 0.00 0.00 71 1008.3
20260509184911 90 194 0.9 0.9 0.00 0.00 0.00 67 1008.4
20260509184408 89 150 0.0 0.0 0.00 0.00 0.00 71 1008.3
20260509183905 87 158 0.0 0.0 0.00 0.00 0.00 73 1008.6
20260509183359 89 124 0.0 0.0 0.00 0.00 0.00 70 1008.5
20260509182856 89 160 0.9 1.7 0.00 0.00 0.00 70 1008.7
20260509182353 88 182 1.7 1.7 0.00 0.00 0.00 71 1009.0
20260509181850 89 261 2.6 2.6 0.00 0.00 0.00 70 1008.7
20260509181347 88 199 0.9 2.6 0.00 0.00 0.00 71 1009.0
20260509180845 88 211 1.7 2.6 0.00 0.00 0.00 70 1009.0
20260509180340 87 257 2.6 2.6 0.00 0.00 0.00 72 1009.0
20260509175838 87 164 0.9 1.7 0.00 0.00 0.00 73 1009.2
20260509175334 87 262 2.6 2.6 0.00 0.00 0.00 72 1009.2
20260509174830 87 152 0.0 0.0 0.00 0.00 0.00 73 1009.1
20260509174326 86 156 2.6 4.3 0.00 0.00 0.00 73 1009.1
20260509173821 84 178 0.0 0.0 0.00 0.00 0.00 76 1009.1
20260509173317 85 157 0.0 0.0 0.00 0.00 0.00 75 1009.2
20260509172814 84 151 0.0 0.0 0.00 0.00 0.00 76 1009.2
20260509172311 84 154 0.0 0.0 0.00 0.00 0.00 77 1008.9
20260509171806 83 150 0.0 0.0 0.00 0.00 0.00 78 1008.9
20260509171302 84 168 2.6 2.6 0.00 0.00 0.00 77 1008.8
20260509170759 86 169 0.9 1.7 0.00 0.00 0.00 76 1009.1
20260509170255 86 142 0.0 0.9 0.00 0.00 0.00 75 1009.4
20260509165754 85 154 0.0 0.0 0.00 0.00 0.00 76 1009.4
20260509165249 84 164 1.7 1.7 0.00 0.00 0.00 76 1009.5
20260509164745 84 158 0.0 0.9 0.00 0.00 0.00 76 1009.2
20260509164241 84 150 0.0 0.9 0.00 0.00 0.00 77 1009.3
20260509163738 84 156 0.9 0.9 0.00 0.00 0.00 77 1009.3
20260509163235 84 150 0.0 0.9 0.00 0.00 0.00 77 1009.3
20260509162733 84 168 0.0 0.0 0.00 0.00 0.00 78 1009.5
20260509162227 82 169 0.0 0.0 0.00 0.00 0.00 80 1009.6
20260509161723 81 157 0.0 0.0 0.00 0.00 0.00 81 1009.6
20260509161220 81 198 0.9 0.9 0.00 0.00 0.00 80 1009.6
20260509160715 82 179 0.9 0.9 0.00 0.00 0.00 81 1009.9
20260509160212 81 139 0.9 0.9 0.00 0.00 0.00 82 1009.7
20260509155707 81 159 0.9 0.9 0.00 0.00 0.00 81 1009.8
20260509155203 81 162 0.9 0.9 0.00 0.00 0.00 82 1009.8
20260509154700 81 158 0.0 0.9 0.00 0.00 0.00 83 1009.8
20260509154157 80 157 0.9 1.7 0.00 0.00 0.00 85 1009.6
20260509153654 79 156 0.9 0.9 0.00 0.00 0.00 86 1009.6
20260509153150 78 165 0.9 0.9 0.00 0.00 0.00 87 1009.5
20260509152646 78 169 0.9 1.7 0.00 0.00 0.00 88 1009.4
20260509152143 78 142 0.9 0.9 0.00 0.00 0.00 88 1009.3
20260509151640 77 258 1.7 1.7 0.00 0.00 0.00 89 1009.4
20260509151137 77 157 0.9 0.9 0.00 0.00 0.00 90 1009.4
20260509150635 77 171 1.7 2.6 0.00 0.00 0.00 90 1009.3
20260509150133 77 144 0.0 0.0 0.00 0.00 0.00 91 1009.1
20260509145629 77 167 0.0 0.9 0.00 0.00 0.00 91 1009.4
20260509145124 76 161 0.0 0.0 0.00 0.00 0.00 92 1009.5
20260509144621 76 152 0.0 0.0 0.00 0.00 0.00 92 1009.5
20260509144118 76 195 0.0 0.0 0.00 0.00 0.00 92 1009.3
20260509143615 76 164 0.9 0.9 0.00 0.00 0.00 92 1009.1
20260509143113 76 161 0.0 0.0 0.00 0.00 0.00 93 1009.0
20260509142608 75 158 0.0 0.0 0.00 0.00 0.00 93 1008.9
20260509142104 75 153 0.0 0.0 0.00 0.00 0.00 93 1008.8
20260509141600 75 156 0.0 0.0 0.00 0.00 0.00 94 1008.9
20260509141057 75 136 0.0 0.0 0.00 0.00 0.00 94 1008.8
20260509140554 75 156 0.0 0.0 0.00 0.00 0.00 94 1009.0
20260509140052 75 152 0.9 0.9 0.00 0.00 0.00 94 1009.1
20260509135549 75 153 0.0 0.9 0.00 0.00 0.00 94 1009.3
20260509135047 75 156 0.0 0.0 0.00 0.00 0.00 94 1009.5
20260509134543 75 154 0.0 0.0 0.00 0.00 0.00 94 1009.3
20260509134041 75 150 0.0 0.0 0.00 0.00 0.00 94 1009.3
20260509133538 75 186 0.0 0.0 0.00 0.00 0.00 95 1009.2
20260509133035 74 128 0.0 0.0 0.00 0.00 0.00 95 1009.2
20260509132534 74 156 0.0 0.0 0.00 0.00 0.00 95 1009.2
20260509132032 75 161 0.0 0.0 0.00 0.00 0.00 95 1009.4
20260509131527 74 152 0.0 0.0 0.00 0.00 0.00 95 1009.4
20260509131024 74 149 0.0 0.0 0.00 0.00 0.00 95 1009.6
20260509130520 74 161 0.0 0.0 0.00 0.00 0.00 95 1009.4
20260509130017 74 147 0.0 0.0 0.00 0.00 0.00 95 1009.7
20260509125513 74 152 0.0 0.0 0.00 0.00 0.00 95 1009.5
20260509125010 74 153 0.0 0.0 0.00 0.00 0.00 95 1009.5
20260509124507 74 169 0.0 0.0 0.00 0.00 0.00 95 1009.6
20260509124004 74 158 0.0 0.0 0.00 0.00 0.00 95 1009.5
20260509123502 74 154 0.0 0.0 0.00 0.00 0.00 95 1009.7
20260509122957 74 154 0.0 0.0 0.00 0.00 0.00 95 1009.7
20260509122454 74 150 0.0 0.0 0.00 0.00 0.00 95 1009.5
20260509121951 74 158 0.0 0.0 0.00 0.00 0.00 95 1009.4
20260509121448 74 142 0.0 0.0 0.00 0.00 0.00 95 1009.6
20260509120946 74 176 0.0 0.0 0.00 0.00 0.00 95 1009.1
20260509120444 74 160 0.0 0.0 0.00 0.00 0.00 95 1008.9
20260509115942 74 155 0.0 0.0 0.00 0.00 0.00 95 1009.1
20260509115438 74 155 0.0 0.0 0.00 0.00 0.00 95 1009.2
20260509114936 74 155 0.0 0.0 0.00 0.00 0.00 95 1009.0
20260509114434 74 152 0.0 0.0 0.00 0.00 0.00 95 1009.0
20260509113933 73 155 0.0 0.0 0.00 0.00 0.00 95 1008.8
20260509113430 73 153 0.0 0.0 0.00 0.00 0.00 95 1008.9
20260509112927 73 156 0.0 0.0 0.00 0.00 0.00 95 1008.6
20260509112425 73 166 0.0 0.0 0.00 0.00 0.00 94 1008.5
20260509111921 73 155 0.0 0.0 0.00 0.00 0.00 95 1008.6
20260509111418 73 166 0.0 0.0 0.00 0.00 0.00 94 1008.8
20260509110916 73 160 0.0 0.0 0.00 0.00 0.00 94 1008.8
20260509110411 73 155 0.0 0.0 0.00 0.00 0.00 94 1008.6
20260509105910 73 158 0.0 0.0 0.00 0.00 0.00 94 1008.6
20260509105408 73 159 0.0 0.0 0.00 0.00 0.00 94 1008.4
20260509104905 73 153 0.0 0.0 0.00 0.00 0.00 94 1008.7
20260509104402 73 156 0.0 0.0 0.00 0.00 0.00 94 1008.6
20260509103859 73 156 0.0 0.0 0.00 0.00 0.00 94 1008.8
20260509103356 73 159 0.0 0.0 0.00 0.00 0.00 94 1008.9
20260509102855 73 161 0.0 0.0 0.00 0.00 0.00 94 1009.1
20260509102352 73 164 0.0 0.0 0.00 0.00 0.00 94 1008.9
20260509101847 73 148 0.0 0.0 0.00 0.00 0.00 94 1008.9
20260509101343 74 149 0.0 0.0 0.00 0.00 0.00 94 1008.7
20260509100842 74 151 0.0 0.0 0.00 0.00 0.00 94 1008.9
20260509100338 74 150 0.0 0.0 0.00 0.00 0.00 94 1008.9
20260509095835 74 152 0.0 0.0 0.00 0.00 0.00 94 1008.4
20260509095332 74 152 0.0 0.0 0.00 0.00 0.00 94 1008.5
20260509094830 74 152 0.0 0.0 0.00 0.00 0.00 94 1008.6
20260509094326 73 150 0.0 0.0 0.00 0.00 0.00 94 1008.5
20260509093824 73 157 0.0 0.0 0.00 0.00 0.00 94 1008.6
20260509093321 73 167 0.0 0.0 0.00 0.00 0.00 94 1008.6
20260509092819 74 154 0.0 0.0 0.00 0.00 0.00 94 1008.4
20260509092317 74 154 0.0 0.0 0.00 0.00 0.00 94 1008.6
20260509091815 73 172 0.0 0.0 0.00 0.00 0.00 94 1008.6
20260509091311 74 176 0.0 0.0 0.00 0.00 0.00 94 1008.8
20260509090809 73 169 0.0 0.0 0.00 0.00 0.00 94 1009.0
20260509090305 74 155 0.0 0.0 0.00 0.00 0.00 94 1009.1
20260509085803 74 152 0.0 0.0 0.00 0.00 0.00 94 1009.3
20260509085301 74 145 0.0 0.0 0.00 0.00 0.00 94 1008.9
20260509084757 74 153 0.0 0.0 0.00 0.00 0.00 94 1009.2
20260509084254 74 156 0.0 0.0 0.00 0.00 0.00 94 1008.8
20260509083752 74 153 0.0 0.0 0.00 0.00 0.00 94 1009.0
20260509083248 74 155 0.0 0.0 0.00 0.00 0.00 94 1008.8
20260509082744 73 157 0.0 0.0 0.00 0.00 0.00 94 1009.0
20260509082241 73 153 0.0 0.0 0.00 0.00 0.00 94 1008.8
20260509081738 74 153 0.0 0.0 0.00 0.00 0.00 94 1008.9
20260509081236 73 152 0.0 0.0 0.00 0.00 0.00 94 1009.2
20260509080734 73 155 0.0 0.0 0.00 0.00 0.00 94 1008.9
20260509080231 73 161 0.0 0.0 0.00 0.00 0.00 94 1009.3
20260509075729 73 154 0.0 0.0 0.00 0.00 0.00 94 1009.2
20260509075226 73 150 0.0 0.0 0.00 0.00 0.00 94 1009.3
20260509074723 73 148 0.0 0.0 0.00 0.00 0.00 94 1008.9
20260509074221 73 156 0.0 0.0 0.00 0.00 0.00 94 1009.0
20260509073717 73 135 0.0 0.0 0.00 0.00 0.00 94 1008.7
20260509073213 73 148 0.0 0.0 0.00 0.00 0.00 94 1008.9
20260509072710 73 151 0.0 0.0 0.00 0.00 0.00 94 1009.0
20260509072207 73 139 0.0 0.0 0.00 0.00 0.00 94 1008.9
20260509071703 73 157 0.0 0.0 0.00 0.00 0.00 94 1008.9
20260509071201 73 153 0.0 0.0 0.00 0.00 0.00 94 1008.7
20260509070658 73 159 0.0 0.0 0.00 0.00 0.00 94 1008.8
20260509070154 73 216 0.0 0.0 0.00 0.00 0.00 94 1008.9
20260509065650 73 151 0.0 0.0 0.00 0.00 0.00 94 1008.9
20260509065146 73 158 0.0 0.0 0.00 0.00 0.00 94 1008.9
20260509064643 73 155 0.0 0.0 0.00 0.00 0.00 94 1008.6
20260509064141 73 151 0.0 0.0 0.00 0.00 0.00 94 1008.7
20260509063638 73 143 0.0 0.9 0.00 0.00 0.00 94 1008.7
20260509063134 73 172 0.0 0.9 0.00 0.00 0.00 94 1008.5
20260509062632 73 143 0.0 0.9 0.00 0.00 0.00 94 1008.7
20260509062128 73 145 0.0 0.0 0.00 0.00 0.00 93 1008.7
20260509061625 73 183 2.6 2.6 0.00 0.00 0.00 93 1008.9
20260509061123 73 134 0.9 1.7 0.00 0.00 0.00 93 1009.1
20260509060621 73 221 0.0 0.0 0.00 0.00 0.00 93 1009.3
20260509060116 73 151 0.0 0.9 0.00 0.00 0.00 93 1008.9
20260509055612 73 124 0.9 2.6 0.00 0.00 0.00 93 1009.3
20260509055108 73 154 0.0 0.0 0.00 0.00 0.00 93 1009.3
20260509054605 73 170 0.0 0.0 0.00 0.00 0.00 93 1009.3
20260509054103 73 128 0.0 0.0 0.00 0.00 0.00 93 1009.4
20260509053601 73 151 0.0 0.0 0.00 0.00 0.00 93 1009.3
20260509053057 73 165 1.7 1.7 0.00 0.00 0.00 93 1009.4
20260509052555 73 150 0.0 0.9 0.00 0.00 0.00 93 1009.2
20260509052053 73 153 0.0 0.0 0.00 0.00 0.00 93 1009.1
20260509051551 73 163 0.0 0.0 0.00 0.00 0.00 93 1009.4
20260509051047 73 160 0.9 0.9 0.00 0.00 0.00 93 1009.5
20260509050544 73 145 0.0 0.0 0.00 0.00 0.00 93 1009.5
20260509050041 73 165 1.7 1.7 0.00 0.00 0.00 93 1009.6
20260509045538 73 148 2.6 2.6 0.00 0.00 0.00 93 1009.4
20260509045035 73 158 0.0 0.0 0.00 0.00 0.00 92 1009.5
20260509044533 73 136 0.0 0.0 0.00 0.00 0.00 92 1009.2
20260509044030 73 153 0.0 0.0 0.00 0.00 0.00 92 1009.3
20260509043526 73 171 0.9 0.9 0.00 0.00 0.00 92 1009.2
20260509043022 73 138 0.9 1.7 0.00 0.00 0.00 92 1009.2
20260509042518 73 148 0.0 0.0 0.00 0.00 0.00 92 1009.4
20260509042014 73 157 0.9 0.9 0.00 0.00 0.00 92 1009.5
20260509041511 73 149 0.0 0.0 0.00 0.00 0.00 92 1009.1
20260509041009 73 151 0.0 0.0 0.00 0.00 0.00 92 1009.1
20260509040507 73 156 0.0 0.0 0.00 0.00 0.00 92 1009.1
20260509040004 73 159 0.0 0.0 0.00 0.00 0.00 92 1009.2
20260509035501 73 155 0.0 0.0 0.00 0.00 0.00 92 1009.2
20260509034957 72 155 0.0 0.0 0.00 0.00 0.00 92 1009.4
20260509034455 72 149 0.0 0.0 0.00 0.00 0.00 92 1009.5
20260509033952 72 175 0.0 0.0 0.00 0.00 0.00 92 1009.3
20260509033448 72 133 0.0 0.0 0.00 0.00 0.00 92 1009.2
20260509032945 72 148 0.0 0.9 0.00 0.00 0.00 92 1009.2
20260509032443 73 143 0.0 0.0 0.00 0.00 0.00 91 1009.0
20260509031940 73 162 0.9 2.6 0.00 0.00 0.00 91 1008.7
20260509031438 73 160 0.0 0.0 0.00 0.00 0.00 91 1009.1
20260509030935 73 144 0.0 0.0 0.00 0.00 0.00 91 1008.6
20260509030433 73 158 0.0 0.0 0.00 0.00 0.00 91 1008.5
20260509025930 73 168 0.9 1.7 0.00 0.00 0.00 91 1008.3
20260509025425 73 139 0.0 0.0 0.00 0.00 0.00 91 1008.5
20260509024920 73 134 0.0 0.0 0.00 0.00 0.00 90 1008.2
20260509024417 73 150 0.0 0.9 0.00 0.00 0.00 90 1008.4
20260509023914 73 130 2.6 4.3 0.00 0.00 0.00 90 1008.6
20260509023411 73 147 0.0 0.0 0.00 0.00 0.00 89 1008.7
20260509022908 73 128 0.0 0.0 0.00 0.00 0.00 89 1008.2
20260509022405 73 154 0.0 0.9 0.00 0.00 0.00 89 1008.2
20260509021902 74 140 0.0 0.0 0.00 0.00 0.00 88 1008.4
20260509021359 74 96 0.9 0.9 0.00 0.00 0.00 88 1008.4
20260509020857 74 148 0.0 0.0 0.00 0.00 0.00 88 1008.5
20260509020355 74 148 0.9 1.7 0.00 0.00 0.00 88 1008.5
20260509015852 74 122 0.0 0.9 0.00 0.00 0.00 88 1008.4
20260509015350 74 113 0.0 0.0 0.00 0.00 0.00 88 1008.5
20260509014846 74 105 0.0 0.0 0.00 0.00 0.00 87 1008.2
20260509014343 74 143 0.0 0.0 0.00 0.00 0.00 87 1008.3
20260509013840 74 94 0.9 1.7 0.00 0.00 0.00 87 1008.5
20260509013336 74 158 0.0 0.0 0.00 0.00 0.00 87 1008.1
20260509012832 74 173 0.0 0.0 0.00 0.00 0.00 87 1008.0
20260509012329 74 161 0.0 0.0 0.00 0.00 0.00 87 1008.1
20260509011827 74 149 0.0 0.9 0.00 0.00 0.00 87 1008.1
20260509011324 74 149 0.0 0.9 0.00 0.00 0.00 86 1008.1
20260509010821 74 141 0.0 0.0 0.00 0.00 0.00 86 1007.7
20260509010318 75 148 0.0 0.0 0.00 0.00 0.00 86 1008.0
20260509005815 75 69 0.9 2.6 0.00 0.00 0.00 86 1007.9
20260509005313 75 146 0.0 0.0 0.00 0.00 0.00 86 1008.0
20260509004808 75 117 0.0 0.0 0.00 0.00 0.00 85 1007.9
20260509004304 75 76 3.5 4.3 0.00 0.00 0.00 85 1007.9
20260509003803 75 100 2.6 4.3 0.00 0.00 0.00 85 1008.1
20260509003300 75 155 0.0 0.0 0.00 0.00 0.00 85 1008.1
20260509002757 75 128 0.0 0.0 0.00 0.00 0.00 85 1008.2
20260509002254 75 119 0.0 0.0 0.00 0.00 0.00 85 1008.2
20260509001752 75 116 0.9 1.7 0.00 0.00 0.00 84 1008.2
20260509001247 75 154 0.0 0.0 0.00 0.00 0.00 84 1008.3
20260509000746 75 150 0.0 0.0 0.00 0.00 0.00 84 1008.0
20260509000242 76 122 0.0 0.0 0.00 0.00 0.00 84 1007.9
20260508235739 76 85 0.0 0.0 0.00 0.00 0.00 83 1008.2
20260508235236 76 113 0.0 0.0 0.00 0.00 0.00 83 1008.5
20260508234733 76 151 0.0 0.0 0.00 0.00 0.00 82 1008.4
20260508234229 76 135 1.7 4.3 0.00 0.00 0.00 82 1008.3
20260508233724 77 92 0.0 0.0 0.00 0.00 0.00 81 1008.2
20260508233221 77 153 0.0 0.9 0.00 0.00 0.00 81 1008.4
20260508232718 77 148 0.0 0.0 0.00 0.00 0.00 80 1008.3
20260508232215 77 175 0.0 0.9 0.00 0.00 0.00 80 1008.2
20260508231713 77 143 0.0 0.0 0.00 0.00 0.00 79 1008.2
20260508231209 77 157 0.0 0.0 0.00 0.00 0.00 79 1008.1
20260508230706 77 119 0.0 0.0 0.00 0.00 0.00 79 1008.2
20260508230202 77 108 0.0 0.0 0.00 0.00 0.00 80 1008.4
20260508225700 77 101 0.0 0.0 0.00 0.00 0.00 81 1008.2
20260508225156 77 83 0.0 0.0 0.00 0.00 0.00 81 1008.2
20260508224654 77 98 0.0 0.0 0.00 0.00 0.00 82 1008.2
20260508224151 77 69 2.6 2.6 0.00 0.00 0.00 82 1008.2
20260508223649 77 128 0.0 0.0 0.00 0.00 0.00 82 1008.1
20260508223146 78 149 0.0 0.0 0.00 0.00 0.00 82 1007.9
20260508222644 78 116 0.0 0.0 0.00 0.00 0.00 82 1008.2
20260508222141 77 143 0.0 0.0 0.00 0.00 0.00 82 1008.2
20260508221637 77 106 3.5 4.3 0.00 0.00 0.00 82 1008.2
20260508221132 78 183 0.0 0.0 0.00 0.00 0.00 82 1008.3
20260508220629 78 127 0.9 2.6 0.00 0.00 0.00 81 1008.4
20260508220126 78 91 0.9 1.7 0.00 0.00 0.00 81 1008.3
20260508215622 78 69 0.9 0.9 0.00 0.00 0.00 81 1008.3
20260508215119 78 111 0.0 0.0 0.00 0.00 0.00 81 1008.4
20260508214616 78 141 0.0 0.0 0.00 0.00 0.00 81 1008.2
20260508214113 78 66 0.0 1.7 0.00 0.00 0.00 81 1008.2
20260508213610 78 171 0.0 0.0 0.00 0.00 0.00 81 1008.5
20260508213106 78 155 0.0 0.0 0.00 0.00 0.00 81 1008.5
20260508212603 79 150 0.0 0.0 0.00 0.00 0.00 80 1008.5
20260508212059 79 153 0.0 0.0 0.00 0.00 0.00 80 1008.6
20260508211554 79 155 0.0 0.0 0.00 0.00 0.00 80 1008.4
20260508211051 80 100 0.9 1.7 0.00 0.00 0.00 79 1008.4
20260508210548 80 140 0.0 0.0 0.00 0.00 0.00 79 1008.3
20260508210045 80 108 0.0 0.0 0.00 0.00 0.00 78 1008.7
20260508205542 80 155 0.0 0.0 0.00 0.00 0.00 79 1008.5
20260508205039 80 156 0.0 0.0 0.00 0.00 0.00 79 1008.8
20260508204535 80 156 0.0 0.0 0.00 0.00 0.00 79 1008.6
20260508204031 79 154 0.0 0.0 0.00 0.00 0.00 80 1008.8
20260508203527 78 172 0.0 0.9 0.00 0.00 0.00 79 1008.7
20260508203024 79 171 0.0 0.0 0.00 0.00 0.00 79 1008.9
20260508202520 80 146 0.0 0.0 0.00 0.00 0.00 78 1009.1
20260508202017 82 182 0.9 0.9 0.00 0.00 0.00 76 1008.7